Marathon, FL

9:12 PM EDT on September 20, 2017 (GMT -0400)
Florida Keys Marathon

Weather History for KMTH - October, 2013

Change the Weather History Date:

Thursday, October 3, 2013

  Actual Average Record
Temperature  
Mean Temperature 85 °F 83 °F  
Max Temperature 89 °F 88 °F 90 °F (1998)
Min Temperature 81 °F 78 °F 72 °F (1999)
Degree Days  
Heating Degree Days 0 0  
Month to date heating degree days 0 0  
Since 1 July heating degree days 0 0  
Cooling Degree Days 20 18  
Month to date cooling degree days 55 54  
Year to date cooling degree days 4361 4008  
Growing Degree Days 36 (Base 50)    
Moisture  
Dew Point 75 °F    
Average Humidity 72    
Maximum Humidity 79    
Minimum Humidity 64    
Precipitation  
Precipitation 0.00 in 0.19 in 3.26 in (2000)
Month to date precipitation 0.75 0.56  
Year to date precipitation 43.14 37.11  
Snow  
Snow 0.00 in - - ()
Month to date snowfall 0.0  
Since 1 July snowfall 0.0  
Since 1 September snowfall 0.0  
Snow Depth 0.00 in    
Sea Level Pressure  
Sea Level Pressure 29.99 in    
Wind  
Wind Speed 8 mph (East)    
Max Wind Speed 16 mph    
Max Gust Speed 21 mph    
Visibility 10 miles    
Events      
T = Trace of Precipitation, MM = Missing Value Source: NWS Daily Summary

Daily Weather History Graph

Daily Weather History Graph

Search for Another Location

Airport or City:

Trip Planner

Search our weather history database for the weather conditions in past years. The results will help you decide how hot, cold, wet, or windy it might be!

Date:

Astronomy

Oct. 03, 2013 Rise Set
Actual Time 7:17 AM EDT 7:08 PM EDT
Civil Twilight 6:54 AM EDT 7:31 PM EDT
Nautical Twilight 6:27 AM EDT 7:57 PM EDT
Astronomical Twilight 6:01 AM EDT 8:24 PM EDT
Moon 5:54 AM EDT (10/3) 6:13 PM EDT (10/3)
Length of Visible Light 12h 37m
Length of Day
11h 51m
Waning Crescent, 2% of the Moon is Illuminated
Oct 3
Waning Crescent
Oct 4
New
Oct 11
First Quarter
Oct 18
Full
Oct 26
Last Quarter

Hourly Weather History & Observations

Time (EDT) Temp. Heat Index Dew Point Humidity Pressure Visibility Wind Dir Wind Speed Gust Speed Precip Events Conditions
12:53 AM 82.9 °F 90.8 °F 75.9 °F 79% 30.00 in 10.0 mi ESE 5.8 mph - N/A   Partly Cloudy
1:53 AM 82.9 °F 90.2 °F 75.0 °F 77% 29.98 in 10.0 mi East 5.8 mph - N/A   Clear
2:53 AM 82.9 °F 90.2 °F 75.0 °F 77% 29.95 in 10.0 mi East 6.9 mph - N/A   Clear
3:53 AM 82.9 °F 90.2 °F 75.0 °F 77% 29.94 in 10.0 mi East 6.9 mph - N/A   Clear
4:53 AM 82.9 °F 90.2 °F 75.0 °F 77% 29.93 in 10.0 mi East 9.2 mph - N/A   Partly Cloudy
5:53 AM 82.9 °F 90.2 °F 75.0 °F 77% 29.94 in 10.0 mi East 6.9 mph - N/A   Scattered Clouds
6:53 AM 82.0 °F 87.9 °F 73.9 °F 76% 29.95 in 10.0 mi East 6.9 mph - N/A   Clear
7:53 AM 82.9 °F 90.2 °F 75.0 °F 77% 29.97 in 10.0 mi East 8.1 mph - N/A   Scattered Clouds
8:06 AM 82.4 °F 89.5 °F 75.2 °F 79% 29.98 in 10.0 mi East 6.9 mph - N/A   Mostly Cloudy
8:16 AM 84.2 °F 90.9 °F 73.4 °F 70% 29.98 in 10.0 mi East 5.8 mph - N/A   Scattered Clouds
8:53 AM 84.9 °F 92.1 °F 73.9 °F 69% 30.00 in 10.0 mi Variable 5.8 mph - N/A   Partly Cloudy
9:53 AM 87.1 °F 96.3 °F 75.0 °F 67% 30.01 in 10.0 mi ESE 5.8 mph - N/A   Clear
10:37 AM 86.0 °F 95.1 °F 75.2 °F 70% 30.03 in 10.0 mi East 8.1 mph - N/A   Mostly Cloudy
10:44 AM 87.8 °F 97.6 °F 75.2 °F 66% 30.03 in 10.0 mi ESE 6.9 mph - N/A   Scattered Clouds
10:53 AM 87.1 °F 96.3 °F 75.0 °F 67% 30.03 in 10.0 mi ESE 9.2 mph - N/A   Scattered Clouds
11:53 AM 87.1 °F 97.3 °F 75.9 °F 69% 30.03 in 10.0 mi ESE 6.9 mph 17.3 mph N/A   Partly Cloudy
12:53 PM 89.1 °F 100.2 °F 75.9 °F 65% 30.02 in 10.0 mi ESE 8.1 mph - N/A   Partly Cloudy
1:53 PM 88.0 °F 98.5 °F 75.9 °F 67% 30.00 in 10.0 mi ESE 8.1 mph - N/A   Scattered Clouds
2:53 PM 88.0 °F 97.5 °F 75.0 °F 65% 29.99 in 10.0 mi ESE 6.9 mph - N/A   Clear
3:53 PM 86.0 °F 95.1 °F 75.0 °F 70% 29.97 in 10.0 mi ESE 4.6 mph - N/A   Clear
4:53 PM 86.0 °F 95.1 °F 75.0 °F 70% 29.97 in 10.0 mi East 6.9 mph - N/A   Clear
5:53 PM 86.0 °F 95.1 °F 75.0 °F 70% 29.97 in 10.0 mi East 6.9 mph - N/A   Partly Cloudy
6:53 PM 84.9 °F 92.1 °F 73.9 °F 69% 29.99 in 10.0 mi ENE 10.4 mph - N/A   Partly Cloudy
7:53 PM 82.0 °F 87.9 °F 73.9 °F 76% 29.99 in 10.0 mi ENE 9.2 mph - N/A   Clear
8:53 PM 82.9 °F 90.2 °F 75.0 °F 77% 30.00 in 10.0 mi ENE 11.5 mph - N/A   Clear
9:53 PM 82.0 °F 88.6 °F 75.0 °F 79% 30.02 in 10.0 mi ENE 6.9 mph - N/A   Clear
10:53 PM 82.9 °F 90.2 °F 75.0 °F 77% 30.02 in 10.0 mi East 6.9 mph - N/A   Clear